This is the latest recevied weather packets stored in our database for station/object N0BII-7. If no packets are shown the sender has not sent any weather packets the latest 10 day(s).
| Time | Temp. | Humidity | Pressure | Rain* | Wind** | Luminosity | Snow |
|---|---|---|---|---|---|---|---|
| 1787823250 | 23.33° C | 64% | 846.2 hPa | - | - | - | - |
| 1787729750 | 27.22° C | 64% | 846.6 hPa | - | - | - | - |
| 1787729451 | 27.22° C | 64% | 846.7 hPa | - | - | - | - |
| 1787729151 | 27.22° C | 64% | 846.8 hPa | - | - | - | - |
| 1787728851 | 27.22° C | 64% | 846.8 hPa | - | - | - | - |
| 1787728550 | 27.22° C | 63% | 846.9 hPa | - | - | - | - |
| 1787727950 | 26.67° C | 64% | 847 hPa | - | - | - | - |
| 1787727650 | 27.22° C | 64% | 846.8 hPa | - | - | - | - |
| 1787727351 | 26.67° C | 64% | 847 hPa | - | - | - | - |
| 1787727050 | 26.67° C | 64% | 846.9 hPa | - | - | - | - |
| 1787726750 | 26.67° C | 64% | 847 hPa | - | - | - | - |
| 1787726449 | 26.67° C | 64% | 847 hPa | - | - | - | - |
| 1787726149 | 27.22° C | 63% | 847.1 hPa | - | - | - | - |
| 1787725850 | 26.67° C | 63% | 846.9 hPa | - | - | - | - |
| 1787725550 | 27.22° C | 63% | 847.2 hPa | - | - | - | - |
| 1787725250 | 27.22° C | 63% | 846.7 hPa | - | - | - | - |
| 1787724950 | 27.22° C | 64% | 846.8 hPa | - | - | - | - |
| 1787724350 | 27.22° C | 62% | 847.1 hPa | - | - | - | - |
| 1787724050 | 27.78° C | 62% | 847.1 hPa | - | - | - | - |
| 1787723750 | 27.78° C | 63% | 847.1 hPa | - | - | - | - |
| 1787723449 | 28.33° C | 62% | 846.7 hPa | - | - | - | - |
| 1787723151 | 28.89° C | 62% | 846.9 hPa | - | - | - | - |
| 1787722850 | 30° C | 62% | 846.8 hPa | - | - | - | - |
| 1787722549 | 30.56° C | 61% | 846.8 hPa | - | - | - | - |
| 1787722249 | 31.67° C | 62% | 846.9 hPa | - | - | - | - |
* Rain since midnight (hover to see other rain measurements)
** Current wind speed in m/s (hover to see current wind gust speed)